Find Starlink 33968

NORAD ID: 63883 Int'l Des: 2025-094 Owner: SPXS Country: US Constellation: starlink operational
LEOCIRCULAR

当前视图

正在加载3D地球...

About Starlink 33968

Starlink 33968 (NORAD 63883) is a starlink constellation satellite (v2 mini) launched May 10, 2025 by SPXS of US. It operates in LEO, CIRCULAR orbit with a mass of 575.00 kg.

即将过境

Passes for default location (London). Set your location on the main map for personalized predictions.

高度历史

Loading altitude history...

两行轨道根数

1 63883U 25094V 26263.58335648 -.00005059 00000-0 -16717-3 0 9995
2 63883 69.9999 100.7825 0003246 265.1594 91.1139 15.30429976 5769
Epoch: Sep 20, 2026 • Age: 8 hours

当前状态

高度 496.5 km
远地点 / 近地点 N/A
速度 7.62 km/s
星下点 -64.69°S, 87.16°E
发射日期 May 10, 2025
运行时间 1.3 years
类型 internet

技术详情

分类 Payload
质量 575.00 kg
干质量 530.00 kg
长度 0.30 m
跨度 29.00 m
形状 ? Box + pan
制造商 SPXS
平台类型 Starlink V2MO
阶段状态 In Orbit
所有者/国家 SPXS/US

Most Searched